Location: Morning Glory
(31.5701°N, 106.2158°W)
Time: 18:42:10
(UTC+00:00)

N. Korean satellite - Pass Details

Date: 03 December 2022
Orbit: 407 x 444 km, 97.3° (Epoch: 28 January)

Event Time Altitude Azimuth Distance (km) Brightness Sun altitude
Rises 11:59:33 0° 18° (NNE) 2,498 10.2 -22.7°
Reaches altitude 10° 12:01:40 10° 24° (NNE) 1,611 9.3 -22.2°
Maximum altitude 12:05:01 47° 99° (E) 614 7.4 -21.5°
Drops below altitude 10° 12:08:17 10° 175° (S) 1,572 9.4 -20.8°
Sets 12:10:20 0° 181° (S) 2,428 10.3 -20.4°
